Regional Weather Roundup
Issued by NWS

Home | Current Version | Previous Version | Text Only | Print | Product List | Glossary Off
Versions: 1 2 3 4 5 6 7 8 9 10 11 12 13 14 15 16 17 18 19 20 21 22 23 24 25 26 27 28 29 30 31 32 33 34 35 36 37 38 39 40 41 42 43 44 45 46 47 48 49 50

000
ASUS43 KFSD 280810
RWRSD

WEATHER ROUNDUP FOR SOUTH DAKOTA
NATIONAL WEATHER SERVICE SIOUX FALLS SD
300 AM CDT WED JUN 28 2017

NOTE: "FAIR" INDICATES FEW OR NO CLOUDS BELOW 12,000 FEET WITH NO
SIGNIFICANT WEATHER AND/OR OBSTRUCTIONS TO VISIBILITY.


SDZ001>005-009-010-012>017-280900-
NORTHWEST AND NORTH CENTRAL SOUTH DAKOTA

CITY           SKY/WX    TMP DP  RH WIND       PRES   REMARKS
BUFFALO          N/A     65  53  65 NW21      29.66
FAITH            N/A     66  54  65 W18       29.65
MOBRIDGE       PTCLDY    69  58  67 NW6       29.50R
$$

SDZ012>016-024>037-041>051-057-063-072>074-280900-
SOUTHWEST AND SOUTH CENTRAL SOUTH DAKOTA

CITY           SKY/WX    TMP DP  RH WIND       PRES   REMARKS
RAPID CTY ARPT CLEAR     60  50  69 NW10      29.72F
PIERRE         CLOUDY    72  54  53 NW21G28   29.53R
CUSTER         CLEAR     51  42  71 CALM      29.86F
ELLSWORTH AFB  PTCLDY    63  51  63 NW9       29.72S
PHILIP         CLOUDY    65  57  75 W8        29.65R
PINE RIDGE     CLEAR     56  54  93 CALM      29.76S
WINNER         FAIR      71  53  52 W13       29.60R
$$

SDZ004>011-016>023-039-040-280900-
NORTHEAST SOUTH DAKOTA

CITY           SKY/WX    TMP DP  RH WIND       PRES   REMARKS
ABERDEEN       CLOUDY    69  62  78 S17       29.47R
WATERTOWN      CLOUDY    69  64  84 SW14      29.55R
BROOKINGS      LGT RAIN  67  63  87 S17       29.56F
SISSETON         N/A     66  59  78 S15G23    29.48
$$

SDZ017-020-022-023-036>040-048>070-280900-
SOUTHEAST SOUTH DAKOTA

CITY           SKY/WX    TMP DP  RH WIND       PRES   REMARKS
SIOUX FALLS    LGT RAIN  66  32  28 S7        29.56F
HURON          CLOUDY    70  61  73 S14       29.52R
CHAMBERLAIN    MOCLDY    70  55  59 SW7       29.58R
MITCHELL       CLOUDY    67  62  84 S12       29.56R
YANKTON        CLOUDY    65  64  97 S10       29.59F
$$

ABBREVIATIONS USED IN REMARKS
   TC - TEMPERATURE IN CELSIUS
  WCI - WIND CHILL INDEX
   HX - HEAT INDEX
  VSB - VISIBILITY




USA.gov is the U.S. government's official web portal to all federal, state and local government web resources and services.